User: anonymous   Login
Location: Unspecified
(0.0000°N, 0.0000°E)
Time: 23:21:12
(UTC+00:00)
Language:

Gurwin Techsat 1B - Orbit

View from above orbital plane
View from above orbital plane
View from above satellite
View from above satellite

Ground track
Ground track

The orbit data is extracted from the following two-line orbital elements,

1 25397U 98043D   18050.87125593 -.00000006  00000-0  16267-4 0  9997
2 25397  98.6389 353.3237 0001755  40.9304 319.2006 14.23639941 19031
Epoch (UTC): 19 February 2018 20:54:36
Eccentricity: 0.0001755
inclination: 98.6389°
perigee height: 812 km
apogee height: 814 km
right ascension of ascending node: 353.3237°
argument of perigee: 40.9304°
revolutions per day: 14.23639941
mean anomaly at epoch: 319.2006°
orbit number at epoch: 1903

The dashed part of the orbit path shows where the satellite is in the earth's shadow,  

DLR